When you browse on this site, cookies collect data to enhance your experience and personalize the content and advertising you see.
Visit our Privacy Policy to learn more. By continuing to use the site, you agree to this use of cookies and data.
  • Em Portugal
  • Lista de países
  • Para 7 dias
  • Temperatura da água
  • Mapas de satélite
  • Mapa do tempo
  • Widgets de tempo
  • user-avatar
    Iniciar Sessão

    Previsão horária em Parkoszow

    Hoje, 24 Março, Domingo

    Tempo Temperatura Precipitação Vento Pressão Humidade
    00:00 +8°C° 0 mm 2 m/s 756 mmHg 90%
    01:00 +8°C° 0 mm 1 m/s 756 mmHg 91%
    02:00 +8°C° 0 mm 1 m/s 756 mmHg 91%
    03:00 +8°C° 0 mm 1 m/s 756 mmHg 91%
    04:00 +7°C° 0 mm 1 m/s 756 mmHg 92%
    05:00 +7°C° 0 mm 1 m/s 756 mmHg 91%
    06:00 +7°C° 0 mm 1 m/s 756 mmHg 90%
    07:00 +7°C° 0 mm 1 m/s 756 mmHg 89%
    08:00 +8°C° 0 mm 1 m/s 755 mmHg 78%
    09:00 +10°C° 0 mm 1 m/s 755 mmHg 67%
    10:00 +11°C° 0 mm 1 m/s 755 mmHg 55%
    11:00 +12°C° 0 mm 1 m/s 754 mmHg 52%
    12:00 +13°C° 0 mm 1 m/s 754 mmHg 48%
    13:00 +14°C° 0 mm 1 m/s 753 mmHg 44%
    14:00 +13°C° 0 mm 1 m/s 753 mmHg 45%
    15:00 +11°C° 0 mm 0 m/s 752 mmHg 47%
    16:00 +11°C° 0 mm 0 m/s 752 mmHg 49%
    17:00 +10°C° 0 mm 0 m/s 751 mmHg 52%
    18:00 +10°C° 0 mm 1 m/s 751 mmHg 56%
    19:00 +10°C° 0 mm 1 m/s 751 mmHg 59%
    20:00 +8°C° 0 mm 2 m/s 751 mmHg 61%
    21:00 +8°C° 0 mm 2 m/s 750 mmHg 62%
    22:00 +8°C° 0 mm 2 m/s 750 mmHg 63%
    23:00 +7°C° 0 mm 2 m/s 750 mmHg 67%

    Amanhã, 25 Março, Segunda-feira

    Tempo Temperatura Precipitação Vento Pressão Humidade
    00:00 +6°C° 0 mm 2 m/s 749 mmHg 71%
    01:00 +5°C° 0 mm 2 m/s 749 mmHg 74%
    02:00 +5°C° 0 mm 2 m/s 748 mmHg 77%
    03:00 +3°C° 0 mm 3 m/s 748 mmHg 80%
    04:00 +3°C° 0 mm 3 m/s 747 mmHg 83%
    05:00 +2°C° 0 mm 3 m/s 747 mmHg 81%
    06:00 +1°C° 0 mm 4 m/s 747 mmHg 79%
    07:00 +1°C° 0 mm 4 m/s 746 mmHg 77%
    08:00 +2°C° 0.1 mm 5 m/s 746 mmHg 72%
    09:00 +3°C° 0.1 mm 6 m/s 746 mmHg 67%
    10:00 +4°C° 0.1 mm 7 m/s 746 mmHg 62%
    11:00 +5°C° 0.5 mm 7 m/s 746 mmHg 62%
    12:00 +5°C° 0.5 mm 6 m/s 746 mmHg 62%
    13:00 +6°C° 0.5 mm 5 m/s 746 mmHg 62%
    14:00 +6°C° 0.3 mm 5 m/s 746 mmHg 59%
    15:00 +6°C° 0.3 mm 5 m/s 746 mmHg 57%
    16:00 +6°C° 0.3 mm 5 m/s 746 mmHg 55%
    17:00 +5°C° 0.5 mm 4 m/s 747 mmHg 63%
    18:00 +4°C° 0.5 mm 3 m/s 747 mmHg 71%
    19:00 +4°C° 0.5 mm 2 m/s 748 mmHg 79%
    20:00 +4°C° 0.2 mm 2 m/s 749 mmHg 82%
    21:00 +3°C° 0.2 mm 2 m/s 750 mmHg 85%
    22:00 +2°C° 0.2 mm 2 m/s 750 mmHg 88%
    23:00 +2°C° 0 mm 2 m/s 751 mmHg 89%

    Depois de amanhã, 26 Março, Terça-feira

    Tempo Temperatura Precipitação Vento Pressão Humidade
    00:00 +2°C° 0 mm 2 m/s 752 mmHg 90%
    01:00 +1°C° 0 mm 2 m/s 752 mmHg 91%
    02:00 +1°C° 0 mm 2 m/s 753 mmHg 93%
    03:00 -1°C° 0 mm 2 m/s 753 mmHg 95%
    04:00 -1°C° 0 mm 2 m/s 754 mmHg 97%
    05:00 -1°C° 0 mm 3 m/s 754 mmHg 96%
    06:00 0°C° 0 mm 3 m/s 755 mmHg 94%
    07:00 0°C° 0 mm 3 m/s 755 mmHg 93%
    08:00 +1°C° 0 mm 4 m/s 755 mmHg 86%
    09:00 +3°C° 0 mm 5 m/s 755 mmHg 79%
    10:00 +5°C° 0 mm 5 m/s 755 mmHg 72%
    11:00 +5°C° 0 mm 6 m/s 755 mmHg 69%
    12:00 +6°C° 0 mm 7 m/s 755 mmHg 66%
    13:00 +6°C° 0 mm 7 m/s 755 mmHg 63%
    14:00 +6°C° 0 mm 7 m/s 755 mmHg 63%
    15:00 +5°C° 0 mm 7 m/s 755 mmHg 64%
    16:00 +5°C° 0 mm 7 m/s 755 mmHg 65%
    17:00 +4°C° 0.1 mm 6 m/s 755 mmHg 67%
    18:00 +3°C° 0.1 mm 5 m/s 755 mmHg 69%
    19:00 +4°C° 0.1 mm 4 m/s 755 mmHg 72%
    20:00 +3°C° 0 mm 4 m/s 755 mmHg 74%
    21:00 +3°C° 0 mm 4 m/s 756 mmHg 75%
    22:00 +3°C° 0 mm 3 m/s 756 mmHg 77%
    23:00 +3°C° 0.1 mm 3 m/s 756 mmHg 81%

    27 Março, Quarta-feira

    Tempo Temperatura Precipitação Vento Pressão Humidade
    00:00 +2°C° 0.1 mm 3 m/s 756 mmHg 85%
    01:00 +2°C° 0.1 mm 3 m/s 756 mmHg 89%
    02:00 +1°C° 0 mm 3 m/s 756 mmHg 91%
    03:00 +2°C° 0 mm 2 m/s 756 mmHg 94%
    04:00 +1°C° 0 mm 2 m/s 756 mmHg 96%
    05:00 +2°C° 0 mm 2 m/s 756 mmHg 95%
    06:00 +1°C° 0 mm 3 m/s 756 mmHg 94%
    07:00 +2°C° 0 mm 3 m/s 757 mmHg 93%
    08:00 +3°C° 0 mm 3 m/s 757 mmHg 88%
    09:00 +4°C° 0 mm 3 m/s 757 mmHg 82%
    10:00 +6°C° 0 mm 4 m/s 757 mmHg 77%
    11:00 +6°C° 0 mm 4 m/s 757 mmHg 73%
    12:00 +7°C° 0 mm 4 m/s 757 mmHg 68%
    13:00 +8°C° 0 mm 5 m/s 757 mmHg 64%
    14:00 +7°C° 0 mm 5 m/s 757 mmHg 65%
    15:00 +7°C° 0 mm 4 m/s 756 mmHg 66%
    16:00 +7°C° 0 mm 4 m/s 756 mmHg 67%
    17:00 +7°C° 0.3 mm 4 m/s 756 mmHg 74%
    18:00 +7°C° 0.3 mm 3 m/s 757 mmHg 80%
    19:00 +7°C° 0.3 mm 3 m/s 757 mmHg 87%
    20:00 +6°C° 0.1 mm 2 m/s 757 mmHg 89%
    21:00 +6°C° 0.1 mm 2 m/s 757 mmHg 91%
    22:00 +6°C° 0.1 mm 2 m/s 757 mmHg 93%
    23:00 +6°C° 0.1 mm 2 m/s 757 mmHg 94%

    28 Março, Quinta-feira

    Tempo Temperatura Precipitação Vento Pressão Humidade
    00:00 +6°C° 0.1 mm 2 m/s 758 mmHg 95%
    01:00 +5°C° 0.1 mm 2 m/s 758 mmHg 97%
    02:00 +5°C° 0 mm 2 m/s 758 mmHg 96%
    03:00 +5°C° 0 mm 2 m/s 758 mmHg 96%
    04:00 +5°C° 0 mm 2 m/s 758 mmHg 96%
    05:00 +5°C° 0 mm 2 m/s 758 mmHg 95%
    06:00 +5°C° 0 mm 2 m/s 758 mmHg 95%
    07:00 +5°C° 0 mm 2 m/s 758 mmHg 94%
    08:00 +6°C° 0 mm 2 m/s 759 mmHg 86%
    09:00 +8°C° 0 mm 2 m/s 759 mmHg 78%
    10:00 +9°C° 0 mm 2 m/s 759 mmHg 70%
    11:00 +10°C° 0 mm 2 m/s 759 mmHg 69%
    12:00 +10°C° 0 mm 2 m/s 759 mmHg 67%
    13:00 +10°C° 0 mm 3 m/s 759 mmHg 66%
    14:00 +10°C° 0 mm 2 m/s 759 mmHg 65%
    15:00 +10°C° 0 mm 2 m/s 759 mmHg 65%
    16:00 +12°C° 0 mm 2 m/s 759 mmHg 65%
    17:00 +10°C° 0 mm 2 m/s 759 mmHg 70%
    18:00 +9°C° 0 mm 2 m/s 759 mmHg 75%
    19:00 +8°C° 0 mm 2 m/s 759 mmHg 80%
    20:00 +8°C° 0 mm 2 m/s 759 mmHg 82%
    21:00 +8°C° 0 mm 2 m/s 760 mmHg 83%
    22:00 +7°C° 0 mm 2 m/s 760 mmHg 84%
    23:00 +7°C° 0 mm 2 m/s 760 mmHg 86%

    29 Março, Sexta-feira

    Tempo Temperatura Precipitação Vento Pressão Humidade
    00:00 +7°C° 0 mm 2 m/s 760 mmHg 88%
    01:00 +6°C° 0 mm 2 m/s 760 mmHg 90%
    02:00 +6°C° 0 mm 2 m/s 760 mmHg 91%
    03:00 +6°C° 0 mm 1 m/s 760 mmHg 93%
    04:00 +5°C° 0 mm 1 m/s 760 mmHg 95%
    05:00 +6°C° 0 mm 1 m/s 760 mmHg 93%
    06:00 +5°C° 0 mm 2 m/s 760 mmHg 91%
    07:00 +5°C° 0 mm 2 m/s 760 mmHg 89%
    08:00 +7°C° 0 mm 2 m/s 760 mmHg 80%
    09:00 +9°C° 0 mm 2 m/s 760 mmHg 72%
    10:00 +12°C° 0 mm 2 m/s 760 mmHg 63%
    11:00 +13°C° 0 mm 2 m/s 760 mmHg 60%
    12:00 +14°C° 0 mm 2 m/s 760 mmHg 56%
    13:00 +15°C° 0 mm 2 m/s 759 mmHg 52%
    14:00 +15°C° 0 mm 2 m/s 759 mmHg 55%
    15:00 +14°C° 0 mm 2 m/s 758 mmHg 58%
    16:00 +14°C° 0 mm 2 m/s 758 mmHg 60%
    17:00 +13°C° 0 mm 2 m/s 758 mmHg 68%
    18:00 +11°C° 0 mm 1 m/s 758 mmHg 76%
    19:00 +10°C° 0 mm 1 m/s 758 mmHg 84%
    20:00 +9°C° 0 mm 1 m/s 758 mmHg 86%
    21:00 +9°C° 0 mm 1 m/s 758 mmHg 88%
    22:00 +8°C° 0 mm 1 m/s 758 mmHg 90%
    23:00 +8°C° 0 mm 1 m/s 758 mmHg 90%
    Mostrar mais